BREEZE-M R/B, 41311

Orbit data source: Space-Track

BREEZE-M R/B, 41311 is space debris in HEO originally from a launch on Fri, 29 Jan 2016 UTC launched from the Tyuratam Missile And Space Complex (TTMTR). Debris objects in space refer to the collection of defunct objects orbiting the Earth. Examples of debris include non-operational satellites, rocket bodies, and fragments generated from explosions, collisions, or faulty payload assembly.

Loading next visibility...
Identifier
41311, 2016-005B
Orbit
HEO
Country
Flag of CISCIS
Related business
Manufacturer
Khrunichev
Mission
Spacecraft
Bus & Motor
BRIZ, Unknown motor
Mass
~1,600 kg wet, 1,600 kg dry
Launch date (UTC)
2016-01-29 (10 years ago)
Launch vehicle
Unknown
Launch site
Tyuratam Missile And Space Complex (TTMTR)
Object type
Payload
Rocket body
Debris
Shape & HBR
Cyl, 2.0 m
Radar Cross Section
15.135 m², Large (>1 m²)

Expand to show TLE details & history
Last TLE update: 2 days ago

TLE from 2 days ago
0 BREEZE-M R/B
1 41311U 16005B   25305.44143944 -.00000102  00000-0  00000-0 0  9994
2 41311  12.0085 142.8848 5944723 247.6997  41.2080  2.17159810 77396
Epoch: 2025-11-01T10:35Z
TLE epoch observation values (Epoch: 2025-11-01T10:35:40.367Z)
Latitude
-0.00005°
Longitude
-56.88334°
Altitude
14,653.505 km
Speed
4.699 km/s
True Right ascension
09h 32m 01s
True Declination
0° 00' 00"
Sunlit
Object was in daylight at epoch
Visualization orbit readout
Latitude
Unknown
Longitude
Unknown
Altitude
Unknown
Speed
Unknown
Apparent Right ascension
Unknown
Apparent Declination
Unknown
Sunlit
N/A
Visualization observer readout
Local Sidereal Time
17:50:45
Azimuth
Unknown
Elevation
Unknown
Doppler factor
Unknown
Orbital elements
Apogee altitude
33,790.491 km
Perigee altitude
3,838.09 km
Semi-major axis
25,192.428 km
Eccentricity
0.59447
Inclination
12.0085°
RAAN
142.8848°
Arg. of periapsis
247.6997°
True anomaly
112.35693°
Mean anomaly
41.208°
Eccentric anomaly
73.93934°
Mean motion
0.5428 °/min
Orbital period
663.23 mins
BSTAR
0
Loading maneuver chart data...
Computing Atmospheric mass density...
Loading historical data...
Loading historical data...
Loading historical data...
Loading historical data...
Loading historical data...
Loading historical data...
Loading historical data...
Other satellites on launch #5 in the year 2016 (2016-01-29 UTC)

Documentation

Showing up to 5 results
|